ARS564 URMM-URSS

Flight info

Callsign ARS564
Flight time N/A
Altitude 240
Route ABELA5L ABELA B967 ERSAR G487 BINOL BINOL1L
Aircraft A339/H-SADE1E2E3GHIJ3J5M1P2RWXY/LB2D1

Departure

Time 2026-04-29 15:57
Airport Mineralnye Vody Airport (URMM)

Arrival

Time N/A
Airport Sochi International Airport (URSS)
Time Latitude Longitude Altitude Speed Heading
2026-04-29 15:46 44.21896 43.08745 1054 ft 0 kts 211°
2026-04-29 15:49 44.21897 43.08746 1054 ft 1 kts 211°
2026-04-29 15:49 44.21924 43.08769 1055 ft 6 kts 210°
2026-04-29 15:49 44.21948 43.08774 1058 ft 0 kts 111°
2026-04-29 15:52 44.21946 43.08787 1058 ft 12 kts 106°
2026-04-29 15:52 44.21956 43.08841 1055 ft 2 kts 63°
2026-04-29 15:52 44.21959 43.08851 1054 ft 3 kts 66°
2026-04-29 15:52 44.21950 43.08924 1054 ft 12 kts 118°
2026-04-29 15:53 44.21851 43.08956 1055 ft 19 kts 189°
2026-04-29 15:53 44.21764 43.08960 1055 ft 17 kts 157°
2026-04-29 15:53 44.21725 43.09111 1055 ft 13 kts 95°
2026-04-29 15:53 44.21699 43.09262 1055 ft 22 kts 110°
2026-04-29 15:54 44.21607 43.09503 1055 ft 34 kts 120°
2026-04-29 15:54 44.21505 43.09821 1055 ft 35 kts 88°
2026-04-29 15:54 44.21591 43.10128 1054 ft 32 kts 71°
2026-04-29 15:54 44.21675 43.10301 1055 ft 15 kts 27°
2026-04-29 15:55 44.21746 43.10331 1055 ft 6 kts 346°
2026-04-29 15:55 44.21757 43.10318 1055 ft 0 kts 326°
2026-04-29 15:55 44.21768 43.10304 1055 ft 5 kts 317°
2026-04-29 15:55 44.21781 43.10277 1056 ft 0 kts 304°
2026-04-29 15:56 44.21875 43.10072 1055 ft 71 kts 302°
2026-04-29 15:56 44.22314 43.09105 1053 ft 160 kts 302°
2026-04-29 15:56 44.23018 43.07544 1173 ft 211 kts 301°
2026-04-29 15:56 44.23845 43.05693 1560 ft 235 kts 301°
2026-04-29 15:57 44.24725 43.03704 2091 ft 247 kts 302°
2026-04-29 15:57 44.25654 43.01580 2647 ft 265 kts 301°
2026-04-29 15:57 44.25784 43.01283 2736 ft 268 kts 302°
2026-04-29 15:58 44.25913 43.00985 2800 ft 271 kts 302°
2026-04-29 15:58 44.27226 42.97899 3569 ft 287 kts 301°
2026-04-29 15:58 44.28259 42.95462 4169 ft 296 kts 301°
2026-04-29 15:58 44.28951 42.93825 4580 ft 302 kts 301°
2026-04-29 15:59 44.30402 42.90376 5413 ft 310 kts 301°
2026-04-29 15:59 44.31128 42.88643 5840 ft 314 kts 300°
2026-04-29 15:59 44.32627 42.85050 6676 ft 327 kts 300°
2026-04-29 15:59 44.33366 42.83269 7055 ft 314 kts 300°
2026-04-29 16:00 44.34430 42.80696 7595 ft 298 kts 300°
2026-04-29 16:00 44.35753 42.77484 8274 ft 279 kts 300°
2026-04-29 16:00 44.36696 42.75186 8750 ft 267 kts 299°
2026-04-29 16:00 44.37309 42.73685 9053 ft 260 kts 299°
2026-04-29 16:01 44.38154 42.71536 9429 ft 253 kts 295°
2026-04-29 16:01 44.38869 42.69323 9753 ft 248 kts 290°
2026-04-29 16:01 44.39433 42.67068 10051 ft 244 kts 285°
2026-04-29 16:01 44.39846 42.64787 10318 ft 241 kts 280°
2026-04-29 16:02 44.40106 42.62486 10565 ft 239 kts 275°
2026-04-29 16:02 44.40218 42.59427 10903 ft 237 kts 268°
2026-04-29 16:02 44.40175 42.57876 11080 ft 236 kts 265°
2026-04-29 16:02 44.39985 42.55601 11329 ft 235 kts 259°
2026-04-29 16:03 44.39649 42.53374 11574 ft 234 kts 255°
2026-04-29 16:03 44.39168 42.51209 11824 ft 232 kts 249°
2026-04-29 16:03 44.38398 42.49270 12048 ft 232 kts 237°
2026-04-29 16:03 44.37338 42.47597 12285 ft 229 kts 227°
2026-04-29 16:04 44.36227 42.46017 12566 ft 227 kts 225°
2026-04-29 16:04 44.35085 42.44497 12832 ft 226 kts 224°
2026-04-29 16:04 44.33913 42.43038 13101 ft 225 kts 222°
2026-04-29 16:04 44.32713 42.41641 13367 ft 224 kts 220°
2026-04-29 16:05 44.31730 42.39993 13600 ft 222 kts 245°
2026-04-29 16:05 44.31268 42.37965 13917 ft 218 kts 255°
2026-04-29 16:05 44.30907 42.35950 14172 ft 216 kts 251°
2026-04-29 16:05 44.30371 42.33989 14357 ft 217 kts 244°
2026-04-29 16:06 44.29649 42.32146 14570 ft 217 kts 237°
2026-04-29 16:06 44.28752 42.30451 14766 ft 217 kts 230°
2026-04-29 16:06 44.27695 42.28936 14998 ft 218 kts 223°
2026-04-29 16:06 44.26499 42.27632 15212 ft 219 kts 216°
2026-04-29 16:07 44.25191 42.26545 15414 ft 218 kts 220°
2026-04-29 16:07 44.24239 42.24917 15360 ft 228 kts 246°
2026-04-29 16:07 44.23888 42.22799 16080 ft 221 kts 262°
2026-04-29 16:07 44.23854 42.20731 17157 ft 207 kts 269°
2026-04-29 16:08 44.24022 42.18786 17978 ft 202 kts 271°
2026-04-29 16:08 44.23876 42.16780 18114 ft 219 kts 246°
2026-04-29 16:08 44.23019 42.14973 18403 ft 228 kts 238°
2026-04-29 16:08 44.22236 42.13089 18953 ft 226 kts 252°
2026-04-29 16:09 44.22009 42.10943 19583 ft 220 kts 259°
2026-04-29 16:09 44.21684 42.08907 20317 ft 212 kts 251°
2026-04-29 16:09 44.21118 42.07044 20824 ft 214 kts 240°
2026-04-29 16:09 44.20246 42.05335 21267 ft 218 kts 233°
2026-04-29 16:10 44.19331 42.03646 21803 ft 219 kts 234°
2026-04-29 16:10 44.18439 42.01924 22357 ft 220 kts 236°
2026-04-29 16:10 44.17569 42.00167 22874 ft 222 kts 237°
2026-04-29 16:10 44.16723 41.98360 23352 ft 224 kts 238°
2026-04-29 16:11 44.16001 41.96414 23586 ft 236 kts 256°
2026-04-29 16:11 44.15942 41.94036 23630 ft 256 kts 274°
2026-04-29 16:11 44.16608 41.91703 24129 ft 266 kts 299°
2026-04-29 16:11 44.17697 41.89705 24565 ft 260 kts 284°
2026-04-29 16:12 44.18733 41.87625 24751 ft 267 kts 302°
2026-04-29 16:12 44.20011 41.85760 25411 ft 265 kts 311°
2026-04-29 16:12 44.21495 41.84242 25994 ft 266 kts 318°
2026-04-29 16:12 44.22863 41.82591 25605 ft 269 kts 289°
2026-04-29 16:13 44.22759 41.79972 24554 ft 304 kts 232°
2026-04-29 16:13 44.21101 41.78229 25354 ft 288 kts 206°
2026-04-29 16:13 44.19376 41.77220 26891 ft 252 kts 207°
2026-04-29 16:13 44.17875 41.76285 28089 ft 224 kts 211°
2026-04-29 16:14 44.16506 41.75283 28332 ft 231 kts 214°
2026-04-29 16:14 44.15081 41.74040 28163 ft 252 kts 218°
2026-04-29 16:14 44.13644 41.72589 28386 ft 258 kts 217°
2026-04-29 16:14 44.12129 41.71161 28224 ft 272 kts 233°
2026-04-29 16:15 44.10948 41.69127 28788 ft 263 kts 232°
2026-04-29 16:15 44.09832 41.67219 29763 ft 246 kts 231°
2026-04-29 16:15 44.08747 41.65404 30282 ft 244 kts 231°
2026-04-29 16:15 44.07634 41.63577 30422 ft 252 kts 230°
2026-04-29 16:16 44.06488 41.61732 30596 ft 258 kts 230°
2026-04-29 16:16 44.05298 41.59854 30908 ft 259 kts 229°
2026-04-29 16:16 44.04091 41.57990 31269 ft 259 kts 229°
2026-04-29 16:16 44.02867 41.56142 31564 ft 261 kts 229°
2026-04-29 16:17 44.01620 41.54295 31840 ft 263 kts 228°
2026-04-29 16:17 44.00349 41.52449 32121 ft 265 kts 227°
2026-04-29 16:17 43.99072 41.50591 32403 ft 267 kts 230°
2026-04-29 16:17 43.98040 41.48422 32534 ft 273 kts 244°
2026-04-29 16:18 43.97431 41.45897 32742 ft 280 kts 256°
2026-04-29 16:18 43.97243 41.43143 32328 ft 307 kts 266°
2026-04-29 16:18 43.97453 41.39943 30749 ft 364 kts 276°
2026-04-29 16:18 43.98090 41.36192 27576 ft 439 kts 282°
2026-04-29 16:19 43.97982 41.31794 25718 ft 465 kts 251°
2026-04-29 16:19 43.96972 41.27633 25874 ft 446 kts 250°
2026-04-29 16:19 43.95952 41.23610 25827 ft 439 kts 250°
2026-04-29 16:19 43.94934 41.19646 25667 ft 435 kts 250°
2026-04-29 16:20 43.93918 41.15694 25286 ft 436 kts 250°
2026-04-29 16:20 43.92897 41.11719 24949 ft 437 kts 250°
2026-04-29 16:20 43.91892 41.07806 24700 ft 436 kts 250°
2026-04-29 16:20 43.90877 41.03858 24449 ft 434 kts 250°
2026-04-29 16:21 43.89872 40.99915 24237 ft 432 kts 251°
2026-04-29 16:21 43.88916 40.95970 24022 ft 431 kts 251°
2026-04-29 16:21 43.88016 40.92018 23770 ft 430 kts 252°
2026-04-29 16:21 43.87171 40.88056 23524 ft 428 kts 253°
2026-04-29 16:22 43.86379 40.84087 23320 ft 425 kts 255°
2026-04-29 16:22 43.85646 40.80129 23097 ft 424 kts 256°
2026-04-29 16:22 43.84975 40.76216 22850 ft 423 kts 257°
2026-04-29 16:22 43.84347 40.72236 22619 ft 422 kts 258°
2026-04-29 16:23 43.83774 40.68260 22363 ft 421 kts 259°
2026-04-29 16:23 43.83257 40.64277 22167 ft 419 kts 259°
2026-04-29 16:23 43.82795 40.60306 21877 ft 418 kts 261°
2026-04-29 16:23 43.82386 40.56317 21638 ft 417 kts 262°
2026-04-29 16:24 43.82031 40.52338 21385 ft 417 kts 263°
2026-04-29 16:24 43.81733 40.48358 21172 ft 415 kts 264°
2026-04-29 16:24 43.81488 40.44384 20937 ft 414 kts 265°
2026-04-29 16:24 43.81297 40.40414 20752 ft 412 kts 266°
2026-04-29 16:25 43.81164 40.36509 20549 ft 411 kts 267°
2026-04-29 16:25 43.81080 40.32561 20334 ft 410 kts 268°
2026-04-29 16:25 43.81051 40.28611 20095 ft 410 kts 269°
2026-04-29 16:25 43.81077 40.24670 19911 ft 408 kts 270°
2026-04-29 16:26 43.81155 40.20748 19736 ft 407 kts 271°
2026-04-29 16:26 43.81284 40.16839 19443 ft 407 kts 272°